TimeEST,TemperatureF,Dew PointF,Humidity,Sea Level PressureIn,VisibilityMPH,Wind Direction,Wind SpeedMPH,Gust SpeedMPH,PrecipitationIn,Events,Conditions,WindDirDegrees,DateUTC
12:53 AM,44.1,26.1,49,30.28,10.0,East,4.6,-,N/A,,Clear,80,2013-02-10 05:53:00
1:53 AM,45.0,26.1,48,30.29,10.0,East,8.1,-,N/A,,Clear,90,2013-02-10 06:53:00
2:53 AM,45.0,26.1,48,30.28,10.0,East,9.2,-,N/A,,Clear,90,2013-02-10 07:53:00
3:53 AM,44.1,25.0,47,30.30,10.0,East,4.6,-,N/A,,Clear,100,2013-02-10 08:53:00
4:53 AM,43.0,26.1,51,30.30,10.0,East,6.9,-,N/A,,Clear,80,2013-02-10 09:53:00
5:53 AM,42.1,26.1,53,30.29,10.0,East,8.1,-,N/A,,Clear,80,2013-02-10 10:53:00
6:53 AM,41.0,26.1,55,30.32,10.0,East,8.1,-,N/A,,Clear,100,2013-02-10 11:53:00
7:53 AM,39.9,27.0,60,30.32,10.0,East,10.4,-,N/A,,Clear,90,2013-02-10 12:53:00
8:53 AM,44.1,28.0,53,30.32,10.0,East,10.4,-,N/A,,Clear,100,2013-02-10 13:53:00
9:53 AM,46.0,28.9,51,30.36,10.0,ESE,9.2,-,N/A,,Clear,110,2013-02-10 14:53:00
10:53 AM,50.0,28.9,44,30.34,10.0,ESE,12.7,19.6,N/A,,Clear,110,2013-02-10 15:53:00
11:53 AM,52.0,30.9,45,30.31,10.0,East,10.4,19.6,N/A,,Mostly Cloudy,100,2013-02-10 16:53:00
12:53 PM,55.0,35.1,47,30.23,10.0,East,13.8,20.7,N/A,,Partly Cloudy,100,2013-02-10 17:53:00
1:53 PM,55.0,37.9,53,30.22,10.0,ESE,10.4,17.3,N/A,,Overcast,120,2013-02-10 18:53:00
2:53 PM,55.9,39.0,53,30.18,10.0,East,10.4,-,N/A,,Overcast,100,2013-02-10 19:53:00
3:53 PM,55.9,39.9,55,30.15,10.0,East,9.2,17.3,N/A,,Overcast,100,2013-02-10 20:53:00
4:53 PM,51.1,45.0,80,30.14,6.0,East,9.2,-,0.07,Rain,Light Rain,80,2013-02-10 21:53:00
5:53 PM,48.9,45.0,86,30.15,4.0,NE,9.2,-,0.15,Rain,Heavy Rain,40,2013-02-10 22:53:00
6:13 PM,48.2,44.6,87,30.18,2.5,NNE,10.4,-,0.11,Rain,Heavy Rain,30,2013-02-10 23:13:00
6:22 PM,46.4,44.6,93,30.17,2.5,NE,10.4,-,0.15,Rain-Thunderstorm,Heavy Rain,50,2013-02-10 23:22:00
6:35 PM,46.4,44.6,93,30.18,2.0,NE,9.2,-,0.23,Rain,Heavy Rain,40,2013-02-10 23:35:00
6:46 PM,46.4,44.6,93,30.18,2.5,ENE,11.5,-,0.29,Rain,Heavy Rain,60,2013-02-10 23:46:00
6:53 PM,46.9,45.0,93,30.19,3.0,NE,11.5,-,0.32,Rain,Rain,40,2013-02-10 23:53:00
7:02 PM,46.4,44.6,93,30.20,2.5,NNE,9.2,-,0.04,Rain,Heavy Rain,30,2013-02-11 00:02:00
7:53 PM,46.0,44.1,93,30.22,2.5,NE,9.2,-,0.36,Rain,Heavy Rain,40,2013-02-11 00:53:00
8:18 PM,44.6,44.6,100,30.23,2.5,NE,8.1,-,0.09,Rain,Rain,40,2013-02-11 01:18:00
8:29 PM,46.4,44.6,93,30.25,2.5,North,9.2,-,0.13,Rain,Rain,10,2013-02-11 01:29:00
8:38 PM,46.4,44.6,93,30.25,2.5,NE,6.9,-,0.17,Rain,Heavy Rain,40,2013-02-11 01:38:00
8:45 PM,46.4,44.6,93,30.25,2.5,NE,5.8,-,0.19,Rain,Rain,40,2013-02-11 01:45:00
8:53 PM,46.0,44.1,93,30.25,2.5,NE,8.1,-,0.21,Rain,Rain,50,2013-02-11 01:53:00
9:09 PM,46.4,44.6,93,30.23,3.0,ENE,9.2,-,0.05,Rain,Rain,60,2013-02-11 02:09:00
9:41 PM,46.4,44.6,93,30.22,3.0,East,11.5,-,0.11,Rain,Rain,80,2013-02-11 02:41:00
9:53 PM,46.0,44.1,93,30.20,3.0,East,13.8,-,0.12,Rain,Rain,100,2013-02-11 02:53:00
10:01 PM,46.4,44.6,93,30.19,3.0,East,12.7,19.6,0.02,Rain,Rain,100,2013-02-11 03:01:00
10:53 PM,46.0,45.0,96,30.16,4.0,East,11.5,19.6,0.09,Rain,Light Rain,100,2013-02-11 03:53:00
11:23 PM,46.4,44.6,93,30.15,2.5,East,10.4,16.1,0.04,Rain,Light Rain,100,2013-02-11 04:23:00
11:34 PM,46.4,44.6,93,30.15,3.0,East,10.4,-,0.04,Rain,Light Rain,90,2013-02-11 04:34:00
11:53 PM,46.0,45.0,96,30.12,2.0,East,9.2,-,0.06,Rain,Light Rain,90,2013-02-11 04:53:00
11:58 PM,46.4,44.6,93,30.13,1.5,East,11.5,-,0.00,Rain,Light Rain,100,2013-02-11 04:58:00